Regional Weather Roundup
Issued by NWS

Home | Current Version | Previous Version | Graphics & Text | Print | Product List | Glossary On
Versions: 1 2 3 4 5 6 7 8 9 10 11 12 13 14 15 16 17 18 19 20 21 22 23 24 25 26 27
000
ASUS45 KBOU 160007
RWRCO

WEATHER ROUNDUP FOR COLORADO
NATIONAL WEATHER SERVICE DENVER/BOULDER CO
500 PM MST SUN JAN 15 2017

NOTE: "FAIR" INDICATES FEW OR NO CLOUDS BELOW 12000 FEET WITH NO
SIGNIFICANT WEATHER AND/OR OBSTRUCTIONS TO VISIBILITY.

COZ001>005-013-030-031-160100-
...NORTHWEST COLORADO...

CITY           SKY/WX    TMP DP  RH WIND       PRES   REMARKS
CRAIG          CLOUDY    22  16  78 NW5       30.01S WCI  16
HAYDEN         CLOUDY    21  18  86 NW6       29.99R WCI  14
MEEKER         CLOUDY    26  23  88 SW5       29.98S WCI  20
MOUNT WERNER   NOT AVBL
STEAMBOAT SPGS CLOUDY    22  21  95 SW5       29.98R WCI  16
WALDEN           N/A    N/A N/A N/A CALM      29.96S
$$

COZ006>008-011-160100-
...WEST CENTRAL VALLEYS...

CITY           SKY/WX    TMP DP  RH WIND       PRES   REMARKS
GRAND JUNCTION CLOUDY    42  32  67 NW8       29.92R
MONTROSE       CLOUDY    37  34  89 NW6       29.94R
EAGLE          CLEAR     32  25  74 CALM      29.93S
RIFLE          FAIR      34  27  75 NW9       29.93R WCI  27
DELTA          CLOUDY    41  35  77 CALM      29.93S
NUCLA          CLOUDY    37  34  87 CALM      29.95R
$$

COZ017>023-064>068-160100-
...SOUTHWEST COLORADO...

CITY           SKY/WX    TMP DP  RH WIND       PRES   REMARKS
DURANGO        CLOUDY    42  35  76 SW8       29.82F
CORTEZ         FOG       38  38 100 NW9       29.88S VSB 1/2
PAGOSA SPRINGS MIX PCPN  38  37  97 CALM      29.85S
TELLURIDE      CLOUDY    32  31  96 W13       29.91S WCI  22
WOLF CREEK PAS CLOUDY    23  23 100 NW5       29.95F WCI  17
$$

COZ009-010-012-014-032>034-037-058>063-160100-
...CENTRAL COLORADO...

CITY           SKY/WX    TMP DP  RH WIND       PRES   REMARKS
ASPEN          CLOUDY    31  26  82 NW3       29.89R
BUENA VISTA    CLOUDY    32  28  85 SE3       29.91S
COPPER MTN     FLURRIES  30  23  74 SE3       29.96S
BERTHOUD PASS  NOT AVBL
COTTONWOOD PAS CLOUDY    32  28  86 CALM      29.93R
GUNNISON       CLOUDY    21  18  88 N5        29.91S WCI  15
KREMMLING      CLOUDY    27  23  86 CALM      29.96S
LEADVILLE      CLOUDY    27  23  85 S6        29.90S WCI  20
MONARCH PASS   CLOUDY    23  21  93 E10       30.03S WCI  12
SALIDA         CLOUDY    35  31  87 SE6       29.98S WCI  30
SUNLIGHT       MOCLDY    25  21  86 CALM      29.98S FOG
WILKERSON PASS CLOUDY    23  21  93 NE12G18   29.96S FOG     WCI  12
$$

COZ069>075-160100-
...SAN LUIS VALLEY/SANGRE DE CRISTO MOUNTAINS...

CITY           SKY/WX    TMP DP  RH WIND       PRES   REMARKS
ALAMOSA        CLOUDY    32  32 100 S6        29.84F FOG     WCI  26
LA VETA PASS   FOG       23  21  93 W5        29.90  VSB 1/4 WCI  17
SAGUACHE       MOCLDY    32  32 100 CALM      29.86S
$$

COZ035-036-038>040-160100-
...NORTHERN COLORADO FRONT RANGE...

CITY           SKY/WX    TMP DP  RH WIND       PRES   REMARKS
DENVER INTL AP FLURRIES  33  25  72 NW6       29.95F WCI  28
DMNS CITY PARK   N/A     33  31  93 W2        29.97S
AURORA         LGT SNOW  32  31  96 NW6       29.96S FOG     WCI  26
FRONT RANGE AP CLOUDY    34  27  75 NW5       29.96  WCI  30
ERIE MUNI ARPT CLOUDY    34  27  76 CALM      29.97S
BOULDER MUN AP MIX PCPN  34  27  75 NE3       29.96S
CENTENNIAL     LGT SNOW  31  29  92 W5        29.95S FOG     WCI  26
BROOMFIELD     LGT SNOW  34  28  80 N3        29.96S
FORT COLLINS   FAIR      34  25  69 CALM      29.98S
LONGMONT       CLOUDY    37  28  72 CALM      29.99S
$$

COZ041-046-047-076>085-087-088-160100-
...PIKES PEAK/PALMER DIVIDE AND SOUTHERN FOOTHILLS...

CITY           SKY/WX    TMP DP  RH WIND       PRES   REMARKS
COLO. SPRINGS  FOG       32  31  96 S6        29.93S VSB 1/4 WCI  26
A. F. ACADEMY  CLOUDY    33  28  82 N12       29.90F WCI  24
SCHRIEVER AFB  NOT AVBL
ELLICOTT       CLOUDY   N/A N/A N/A CALM      29.91F
FALCON         CLOUDY    32  28  84 N6        29.92S WCI  27
FORT CARSON    LGT RAIN  32  32 100 VRB3      29.94S VSB 3/4
LIMON          CLOUDY    30  28  92 N7        29.94S FOG     WCI  23
MONUMENT HILL  LGT SNOW  28  28 100 NW6       29.94S WCI  22
TRINIDAD       CLOUDY    31  28  89 E3        29.92F FOG
$$

COZ042>045-048>051-090-091-160100-
...NORTHEAST COLORADO...

CITY           SKY/WX    TMP DP  RH WIND       PRES   REMARKS
GREELEY ARPT   CLOUDY    36  26  67 S3        29.98F
AKRON          CLOUDY    29  25  85 N5        29.96F WCI  24
BURLINGTON     CLOUDY    32  29  88 NE6       29.97S WCI  26
WRAY           NOT AVBL
STERLING       MIX PCPN  30  30 100 E3        29.98F
HOLYOKE        LGT SNOW  34  32  93 CALM      30.01F VSB 1
FORT MORGAN    CLOUDY    31  27  88 E3        29.98S
$$

COZ086-089-092>099-160100-
...SOUTHEAST COLORADO...

CITY           SKY/WX    TMP DP  RH WIND       PRES   REMARKS
PUEBLO         CLOUDY    34  31  88 S3        29.95S FOG
LA JUNTA       LGT SNOW  33  31  92 CALM      29.96F FOG
LAMAR          MIX PCPN  32  30  92 CALM      29.96F FOG
SPRINGFIELD      N/A     31  30  96 N9        29.92F WCI  23
$$




USA.gov is the U.S. government's official web portal to all federal, state and local government web resources and services.